STARLINK-34020, 63939

Orbit data source: Space-Track

STARLINK-34020, 63939 is a payload satellite owned by SpaceX/Seattle (US) in LEO that was launched on Tue, 13 May 2025 UTC via an FALCON 9 launch vehicle from the Air Force Western Test Range (AFWTR). Payload-class satellites include a variety of spacecraft equipped with specific instruments for various scientific and technological missions. These include communications satellites like Starlink; space stations such as the ISS; scientific satellites like the Hubble; Earth observation satellites from companies like Planet Labs, Umbra, and HawkEye 360; GPS; miniature CubeSats for education and research; and military/defense satellites.

Loading next visibility...
Identifier
63939, 2025-098P
Orbit
LEO
Last TLE update
15 hours ago
Origin
Manufacturer
SpaceX/Seattle
Mission
Operational spacecraft
Bus & Motor
STARLINK V2MO, Unknown motor
Mass
575 kg wet, ~530 kg dry
Launch date (UTC)
2025-05-13 (1 month ago)
Launch vehicle
FALCON 9
Launch site
Air Force Western Test Range (AFWTR)
Object type
Payload
Rocket body
Debris
Shape & HBR
Unknown
Radar Cross Section
Large (>1 m²)

Expand to show TLE details & history

TLE from 15 hours ago
0 STARLINK-34020
1 63939U 25098P   25175.10512587  .00029646  00000-0  67708-3 0  9991
2 63939  69.9988 209.4469 0003173 271.4758  88.6060 15.42742365  7759
Epoch: 2025-06-24T02:31Z
TLE epoch observation values (Epoch: 2025-06-24T02:31:22.875Z)
Latitude
-0.00004°
Longitude
-100.90425°
Altitude
440.439 km
Speed
7.648 km/s
True Right ascension
13h 57m 47s
True Declination
0° 00' 00"
Sunlit
Object was in full shadow at epoch
Visualization orbit readout
Latitude
1.26242°
Longitude
76.97756°
Altitude
440.3 km
Speed
7.648 km/s
Apparent Right ascension
22h 46m 08s
Apparent Declination
-41° 39' 44"
Sunlit
Object is in daylight
Visualization observer readout
Local Sidereal Time
04:29:57
Azimuth
233.887° WSW
Elevation
-22.712°
Doppler factor
1
Orbital elements
Apogee altitude
438.09 km
Perigee altitude
433.766 km
Semi-major axis
6,814.065 km
Eccentricity
0.00032
Inclination
69.9988°
RAAN
209.4469°
Arg. of periapsis
271.4758°
True anomaly
Unknown
Mean anomaly
88.606°
Eccentric anomaly
Unknown
Mean motion
3.85864 °/min
Orbital period
93.3 mins
BSTAR
0.00067708
Loading maneuver chart data...
Loading SW <> Apogee altitude chart data...
Loading historical data...
Loading historical data...
Loading historical data...
Loading historical data...
Loading historical data...
Loading historical data...
Loading historical data...

STARLINK-34020 Visibility forecast

Observer location: undefined°, undefined°

Span
Click to sort rows by Start time (UTC) header in descending order
Start Az.
Max El. time (UTC)
Max El. Az.
Max El.
End time (UTC)
End Az.
6 mins2025-06-25 03:32:58.635Z196.351° SSW2025-06-25 03:35:58.635Z149.671° SSE42.543°2025-06-25 03:38:58.635Z30.007° NE
5 mins2025-06-25 13:18:58.635Z330.397° NNW2025-06-25 13:20:58.635Z257.181° W44.244°2025-06-25 13:23:58.635Z161.682° S
|